Location: Unspecified
(0.0000°N, 0.0000°E)
Time: 14:17:28
(UTC+00:00)

A-11 Canister half - Pass Details

Date: 28 May 2026
Orbit: 1515 x 1685 km, 47.2° (Epoch: 8 June)

Event Time Altitude Azimuth Distance (km) Brightness Sun altitude
Rises 05:30:05 0° 268° (W) 4,689 - -6.3°
Exits shadow 05:33:32 - 253° (WSW) 4,108 10.5 -5.5°
Reaches altitude 10° 05:38:25 10° 224° (SW) 3,761 10.5 -4.4°
Maximum altitude 05:38:42 10° 223° (SW) 3,761 10.5 -4.3°
Drops below altitude 10° 05:39:00 10° 221° (SW) 3,765 10.5 -4.3°
Sets 05:47:37 0° 177° (S) 4,815 11.4 -2.3°
